[[[{"header":{"parameterUnit":"kt","parameterCategory":2,"dx":1,"dy":1,"la1":30.253999710083008,"la2":30.299108505249023,"lo1":-89.0895004272461,"lo2":-89.04439544677734,"nx":28,"ny":28,"refTime":"2022-10-20T21:00:00:Z","depth":0,"parameterNumber":1,"parameterNumberName":"U-component_of_WINDS"},"data":[-0.2231,-0.2321,-0.2377,-0.2508,-0.2581,-0.2681,-0.2736,-0.2813,-0.2889,-0.3019,-0.3104,-0.3173,-0.3275,-0.3394,-0.3493,-0.3522,-0.3561,-0.3553,-0.3589,-0.3571,-0.3573,-0.3575,-0.3556,-0.3559,-0.3559,-0.36,-0.3601,-0.3601,-0.2218,-0.2289,-0.2373,-0.2493,-0.2568,-0.261,-0.2711,-0.2771,-0.2861,-0.2955,-0.3042,-0.3162,-0.3265,-0.3372,-0.3483,-0.3532,-0.356,-0.3558,-0.3556,-0.3573,-0.3555,-0.3535,-0.3533,-0.3533,-0.3533,-0.3533,-0.3533,-0.3533,-0.2209,-0.226,-0.2364,-0.2457,-0.2533,-0.2614,-0.2674,-0.2755,-0.2841,-0.2959,-0.3011,-0.3115,-0.3223,-0.3385,-0.3454,-0.354,-0.3553,-0.357,-0.3575,-0.3579,-0.3575,-0.3514,-0.3561,-0.3561,-0.3562,-0.3562,-0.3562,0,-0.222,-0.2263,-0.2347,-0.2448,-0.2519,-0.2603,-0.2691,-0.273,-0.2843,-0.2909,-0.3011,-0.308,-0.3218,-0.3323,-0.3439,-0.3509,-0.3563,-0.3574,-0.3587,-0.3564,-0.3529,-0.3552,-0.3524,-0.3573,-0.3573,-0.3573,-0.3574,-0.3574,-0.2218,-0.227,-0.2405,-0.2457,-0.2518,-0.26,-0.2662,-0.2757,-0.2819,-0.2943,-0.2985,-0.309,-0.3179,-0.3336,-0.3434,-0.3539,-0.3567,-0.358,-0.3583,-0.3559,-0.3572,-0.3568,-0.3576,-0.3577,-0.3577,-0.3577,-0.3576,0,-0.2212,-0.2302,-0.2401,-0.2531,-0.2565,-0.2616,-0.273,-0.2786,-0.2859,-0.2948,-0.2975,-0.3091,-0.319,-0.3287,-0.3421,-0.3469,-0.3563,-0.3586,-0.3528,-0.3538,-0.3562,-0.356,-0.3616,-0.363,-0.3625,-0.3624,-0.3624,0,-0.2247,-0.2311,-0.2443,-0.2495,-0.2572,-0.2665,-0.2739,-0.2809,-0.29,-0.2971,-0.3046,-0.3111,-0.3224,-0.3305,-0.3376,-0.347,-0.3494,-0.3538,-0.3556,-0.3533,-0.3527,-0.357,-0.3571,-0.3592,-0.3592,-0.3591,-0.3591,0,-0.223,-0.2375,-0.246,-0.2508,-0.2653,-0.2691,-0.2754,-0.2857,-0.2917,-0.301,-0.305,-0.3152,-0.3209,-0.3289,-0.3378,-0.3377,-0.3494,-0.3511,-0.3539,-0.3537,-0.3561,-0.3559,-0.3583,-0.359,-0.359,-0.359,-0.359,0,-0.2273,-0.236,-0.2468,-0.2592,-0.2626,-0.2682,-0.2788,-0.2858,-0.2961,-0.3008,-0.3083,-0.3144,-0.3231,-0.3242,-0.3364,-0.3338,-0.3391,-0.344,-0.3444,-0.346,-0.3469,-0.3473,-0.3483,-0.349,-0.3472,-0.3471,-0.3471,0,-0.2231,-0.2363,-0.2443,-0.2544,-0.2619,-0.2697,-0.2762,-0.285,-0.2918,-0.2995,-0.3072,-0.3158,-0.3186,-0.3227,-0.3274,-0.3358,-0.3392,-0.3356,-0.3472,-0.3475,-0.3444,-0.3454,-0.3432,-0.347,-0.3459,-0.346,-0.3461,0,-0.2209,-0.2381,-0.2393,-0.2453,-0.258,-0.2643,-0.2716,-0.2821,-0.2867,-0.2957,-0.3024,-0.3146,-0.3174,-0.3239,-0.33,-0.3345,-0.3372,-0.3369,-0.3373,-0.3369,-0.346,-0.344,-0.3445,-0.3404,-0.3406,-0.3407,-0.3452,0,-0.2259,-0.2335,-0.2371,-0.2495,-0.2557,-0.2625,-0.2723,-0.2777,-0.2828,-0.2898,-0.2997,-0.3094,-0.3203,-0.3233,-0.3284,-0.3353,-0.3357,-0.3385,-0.3404,-0.3408,-0.3426,-0.3433,-0.337,-0.3371,-0.3372,-0.3373,0,0,-0.2198,-0.2309,-0.2392,-0.2465,-0.2523,-0.2602,-0.2666,-0.2733,-0.2865,-0.2905,-0.2916,-0.3102,-0.318,-0.3291,-0.3299,-0.3342,-0.3366,-0.3359,-0.3405,-0.3408,-0.3411,-0.3428,-0.3434,-0.3375,-0.3375,-0.3375,-0.3376,0,-0.2237,-0.2308,-0.2367,-0.2439,-0.2548,-0.2618,-0.2632,-0.2754,-0.2802,-0.2897,-0.2964,-0.3035,-0.3179,-0.3255,-0.3313,-0.3348,-0.3396,-0.3373,-0.3359,-0.3411,-0.3413,-0.3415,-0.3431,-0.3435,-0.3378,-0.3378,-0.3378,0,-0.2235,-0.2323,-0.2361,-0.2493,-0.2565,-0.2639,-0.2682,-0.2757,-0.2815,-0.29,-0.2993,-0.306,-0.3169,-0.3258,-0.3302,-0.3314,-0.3418,-0.3401,-0.3398,-0.3406,-0.3461,-0.3463,-0.3464,-0.3442,-0.3441,-0.3441,0,0,-0.2255,-0.2325,-0.2449,-0.2508,-0.2549,-0.2653,-0.2701,-0.2757,-0.285,-0.2887,-0.2974,-0.3065,-0.3152,-0.3206,-0.3291,-0.3374,-0.3407,-0.3405,-0.3402,-0.3399,-0.3405,-0.3459,-0.3461,-0.3441,-0.3441,-0.3441,0,0,-0.2266,-0.2411,-0.2444,-0.2525,-0.261,-0.2738,-0.2772,-0.2818,-0.2903,-0.2907,-0.3007,-0.3036,-0.3121,-0.3184,-0.3163,-0.3301,-0.3317,-0.3325,-0.3256,-0.3253,-0.3251,-0.3235,-0.3223,0,0,0,0,0,-0.2354,-0.2393,-0.2422,-0.2449,-0.2617,-0.2721,-0.2744,-0.2825,-0.2836,-0.2861,-0.2942,-0.2989,-0.3194,-0.3177,-0.3205,-0.3229,-0.3431,-0.3433,-0.3434,-0.3366,-0.3362,-0.3359,0,0,0,0,0,0,-0.2366,-0.2399,-0.2421,-0.2548,-0.2587,-0.272,-0.2757,-0.278,-0.2835,-0.2842,-0.2971,-0.2993,-0.3066,-0.3169,-0.3193,-0.3213,-0.3215,-0.3432,-0.3433,-0.3434,-0.3365,-0.3362,-0.3359,0,0,0,0,0,-0.2375,-0.2402,-0.2648,-0.2549,-0.2582,-0.27,-0.2756,-0.2776,-0.282,-0.2944,-0.2967,-0.2876,-0.3064,-0.309,-0.3183,-0.32,-0.3199,-0.3208,-0.3433,-0.3434,-0.3435,-0.3363,0,0,0,0,0,0,-0.2382,-0.2423,-0.2657,-0.267,-0.2539,-0.2694,-0.2721,-0.2771,-0.292,-0.2942,-0.2854,-0.2858,-0.3064,-0.3084,-0.3104,-0.3191,-0.3186,-0.3195,-0.32,-0.3434,-0.3434,-0.3435,0,0,0,0,0,0,-0.2409,-0.2433,-0.2664,-0.2647,-0.2659,-0.2689,-0.2712,-0.2803,-0.2921,-0.2822,-0.283,-0.2854,-0.3036,-0.308,-0.3095,-0.3234,-0.3176,-0.3185,-0.319,-0.3194,-0.3434,-0.3435,0,0,0,0,0,0,-0.2421,-0.2442,-0.2644,-0.2654,-0.2664,-0.2821,-0.2771,-0.2939,-0.2903,-0.2814,-0.2902,-0.2902,-0.303,-0.3047,-0.3089,-0.322,-0.323,-0.3176,-0.3182,-0.3186,-0.3189,0,0,0,0,0,0,0,-0.2431,-0.2268,-0.2577,-0.2659,-0.2668,-0.2794,-0.2798,-0.2802,-0.2903,-0.2902,-0.2902,-0.2902,-0.3128,-0.3138,-0.3147,-0.321,0,0,-0.3176,-0.318,0,0,0,0,0,0,0,0,-0.2261,-0.2266,-0.2577,-0.258,-0.2583,-0.2795,-0.2798,-0.2801,-0.2903,-0.2902,-0.2902,-0.2902,-0.3131,-0.3138,-0.3146,0,0,0,0,0,0,0,0,0,0,0,0,0,0,0,-0.2578,-0.258,0,-0.2795,-0.2798,-0.28,-0.2903,-0.2902,-0.2902,-0.2902,-0.3133,-0.3139,-0.3145,0,0,0,0,0,0,0,0,0,0,0,0,0,0,0,0,0,0,0,0,0,0,0,0,0,0,0,0,0,0,0,0,0,0,0,0,0,0,0,0,0,0,0,0,0,0,0,0,0,0,0,0,0,0,0,0,0,0,0,0,0,0,0,0,0,0,0,0,0]}],[{"header":{"parameterUnit":"kt","parameterCategory":2,"dx":1,"dy":1,"la1":30.253999710083008,"la2":30.299108505249023,"lo1":-89.0895004272461,"lo2":-89.04439544677734,"nx":28,"ny":28,"refTime":"2022-10-20T21:00:00:Z","depth":0,"parameterNumber":2,"parameterNumberName":"V-component_of_WINDS"},"data":[8.0201,8.0264,8.0242,8.0304,8.0295,8.0332,8.0339,8.0344,8.0344,8.0386,8.0406,8.0391,8.0381,8.0399,8.0419,8.0412,8.0419,8.0456,8.044,8.0297,8.0275,8.0255,8.0236,8.046,8.046,8.0587,8.0589,8.0589,8.009,8.0082,8.0111,8.0122,8.0145,8.0096,8.0102,8.0123,8.0158,8.016,8.0179,8.0215,8.0241,8.0218,8.0238,8.0265,8.0242,8.0272,8.0266,8.0264,8.0112,8.0093,8.029,8.029,8.029,8.029,8.029,8.029,7.9883,7.9923,7.9918,7.9948,7.9949,7.9958,7.9991,7.9972,7.9999,8.002,7.9991,8.003,8.0027,8.0042,8.0043,8.0071,8.0034,8.0059,8.0064,8.0069,8.0076,7.9883,8.0075,8.0075,8.0074,8.0074,8.0073,0,7.9722,7.9701,7.9728,7.9748,7.9769,7.9783,7.9792,7.9813,7.9763,7.9788,7.9821,7.9837,7.9868,7.9896,7.9912,7.9906,7.9854,7.985,7.9866,7.9875,7.9881,7.9871,7.9618,7.9843,7.9841,7.984,7.9839,7.9838,7.9504,7.9558,7.9544,7.9565,7.9565,7.9602,7.9619,7.9571,7.9591,7.9595,7.9633,7.9663,7.9682,7.9741,7.9717,7.974,7.9714,7.9801,7.9717,7.9725,7.9706,7.9701,7.9702,7.9816,7.9819,7.9821,7.9823,0,7.9382,7.9348,7.9424,7.9406,7.9403,7.946,7.9443,7.9483,7.9461,7.9512,7.9521,7.9486,7.952,7.9483,7.9516,7.9495,7.9581,7.956,7.9579,7.957,7.9639,7.963,7.9883,7.991,7.9686,7.9688,7.969,0,7.918,7.9253,7.9196,7.9242,7.932,7.927,7.9347,7.9336,7.9334,7.9373,7.9312,7.935,7.9297,7.933,7.9299,7.9364,7.9373,7.9358,7.9347,7.9359,7.936,7.9363,7.9349,7.9332,7.9331,7.933,7.9329,0,7.8986,7.9046,7.9121,7.9128,7.9117,7.9153,7.915,7.9148,7.9166,7.9184,7.9194,7.922,7.9233,7.9252,7.9211,7.9155,7.9294,7.9207,7.9277,7.9278,7.9304,7.9302,7.9541,7.9327,7.9327,7.9326,7.9326,0,7.8815,7.8836,7.8954,7.894,7.8958,7.901,7.9029,7.9065,7.9068,7.9051,7.9066,7.9018,7.9078,7.8994,7.9072,7.9009,7.9024,7.9017,7.9022,7.9018,7.8923,7.9053,7.9291,7.9311,7.9023,7.902,7.9018,0,7.8598,7.871,7.8667,7.8781,7.8826,7.8749,7.8806,7.8811,7.8794,7.8828,7.8809,7.885,7.8781,7.8787,7.8833,7.8813,7.8896,7.8802,7.8844,7.8846,7.8837,7.9058,7.9098,7.9245,7.8985,7.8989,7.8991,0,7.8426,7.8414,7.8438,7.8442,7.8443,7.8483,7.855,7.8579,7.8603,7.862,7.8669,7.8731,7.8677,7.8691,7.8656,7.8705,7.8838,7.8641,7.864,7.8671,7.8969,7.9006,7.9031,7.8803,7.8807,7.8811,7.8966,0,7.816,7.8215,7.828,7.8298,7.8324,7.8396,7.8356,7.8388,7.835,7.833,7.8408,7.8405,7.8435,7.8458,7.8423,7.8549,7.852,7.8465,7.8374,7.8523,7.8572,7.8593,7.8304,7.8301,7.8299,7.8297,0,0,7.7957,7.8034,7.7987,7.805,7.8068,7.7988,7.8067,7.8076,7.8096,7.8108,7.8059,7.8144,7.8144,7.8242,7.8285,7.8301,7.8317,7.8268,7.8454,7.8472,7.8489,7.8542,7.8565,7.8293,7.8292,7.8291,7.829,0,7.785,7.7857,7.7938,7.7945,7.7952,7.7928,7.7948,7.7942,7.7933,7.8012,7.7943,7.7986,7.8058,7.8064,7.8076,7.8257,7.82,7.8271,7.8378,7.8432,7.8453,7.8471,7.8529,7.8551,7.8284,7.8285,7.8285,0,7.7667,7.7663,7.77,7.7742,7.7746,7.7798,7.7694,7.7756,7.7792,7.7702,7.778,7.7774,7.7781,7.7883,7.7927,7.7883,7.8095,7.8025,7.8039,7.8041,7.8091,7.8117,7.8139,7.784,7.7839,7.7838,0,0,7.758,7.7632,7.7613,7.7716,7.7724,7.769,7.7714,7.7679,7.7688,7.7692,7.7682,7.7692,7.7732,7.776,7.7796,7.7916,7.7909,7.7972,7.7993,7.801,7.8022,7.8076,7.8102,7.7832,7.7832,7.7832,0,0,7.7538,7.7519,7.748,7.7595,7.7606,7.7593,7.7656,7.7607,7.7636,7.7623,7.7566,7.7567,7.7661,7.7658,7.7592,7.7762,7.7675,7.769,7.776,7.7786,7.7806,7.7802,7.7483,0,0,0,0,0,7.7408,7.7521,7.7486,7.7499,7.7553,7.7613,7.7619,7.7575,7.7512,7.7563,7.7546,7.7486,7.7609,7.7549,7.7563,7.7636,7.7764,7.7776,7.7788,7.7905,7.7933,7.7956,0,0,0,0,0,0,7.7413,7.743,7.7483,7.7476,7.7487,7.7609,7.7492,7.7483,7.7506,7.7493,7.7491,7.7486,7.7449,7.7539,7.7552,7.7622,7.7479,7.7769,7.7779,7.7788,7.7915,7.7937,7.7956,0,0,0,0,0,7.7416,7.743,7.7528,7.7473,7.7483,7.7451,7.7488,7.7479,7.7496,7.7471,7.7464,7.746,7.7452,7.746,7.7547,7.7617,7.747,7.7475,7.7776,7.7784,7.7791,7.7926,0,0,0,0,0,0,7.7419,7.7422,7.7528,7.753,7.7428,7.7443,7.7445,7.7476,7.7471,7.7465,7.7436,7.7427,7.7456,7.7461,7.7468,7.7618,7.7462,7.7467,7.747,7.7782,7.7788,7.7794,0,0,0,0,0,0,7.7414,7.7424,7.7529,7.7474,7.7468,7.7437,7.7438,7.7506,7.7472,7.7437,7.7428,7.7432,7.7446,7.7463,7.7467,7.7576,7.7456,7.7461,7.7465,7.7467,7.7787,7.7792,0,0,0,0,0,0,7.7417,7.7425,7.7473,7.7469,7.7464,7.7475,7.7496,7.7553,7.7426,7.7438,7.7413,7.7407,7.745,7.7453,7.7468,7.7575,7.7576,7.7456,7.746,7.7462,7.7464,0,0,0,0,0,0,0,7.742,7.7378,7.7521,7.7465,7.746,7.7541,7.7542,7.7542,7.7425,7.7419,7.7414,7.741,7.7429,7.7434,7.7439,7.7575,0,0,7.7456,7.7458,0,0,0,0,0,0,0,0,7.7373,7.7376,7.7521,7.7521,7.7522,7.7541,7.7542,7.7542,7.7424,7.742,7.7415,7.7412,7.743,7.7434,7.7439,0,0,0,0,0,0,0,0,0,0,0,0,0,0,0,7.7521,7.7521,0,7.7541,7.7542,7.7542,7.7423,7.742,7.7416,7.7413,7.7431,7.7435,7.7438,0,0,0,0,0,0,0,0,0,0,0,0,0,0,0,0,0,0,0,0,0,0,0,0,0,0,0,0,0,0,0,0,0,0,0,0,0,0,0,0,0,0,0,0,0,0,0,0,0,0,0,0,0,0,0,0,0,0,0,0,0,0,0,0,0,0,0,0,0]}]]]